Lid_Strength_Index
5 5 5 5 5 5 5 5 5 5 5 5 5 5 4 4 4 4 4 4 4 5 5 4 4 4 6 10 9 6 -3 -1 0 2 7 9 10 9 9 9 8 10 9 6 6 6 6
5 5 5 5 5 5 5 5 5 5 5 5 5 4 4 4 4 4 4 4 4 5 4 4 4 4 9 12 6 6 1 1 2 5 7 8 8 8 8 9 10 9 7 7 6 6 7
5 5 5 5 5 5 5 5 5 5 5 5 5 5 5 4 4 4 4 4 5 5 4 3 4 4 8 9 6 5 6 4 4 6 8 8 8 9 9 9 8 6 8 7 7 7 8
5 5 5 5 5 5 5 5 5 5 5 5 5 5 5 5 5 4 4 5 5 4 2 3 3 5 10 5 5 3 6 7 6 6 7 8 8 10 9 8 7 9 9 12 8 7 7
5 5 5 5 5 5 5 5 5 5 5 5 5 5 5 4 4 5 5 5 4 3 3 3 6 7 8 2 5 4 6 7 7 7 7 6 8 10 10 10 11 11 13 12 11 7 8
5 5 5 5 6 5 5 5 5 5 5 5 5 5 5 5 5 5 6 5 5 4 3 2 3 7 7 7 6 5 6 6 8 8 8 10 12 12 12 11 15 13 12 12 12 9 9
5 6 6 6 6 5 5 5 5 5 5 5 5 5 5 5 5 6 7 10 10 10 7 8 8 7 6 6 4 5 6 7 9 11 13 12 13 14 12 11 9 10 11 11 10 8 10
6 6 6 6 6 6 6 6 6 6 5 5 5 5 5 5 6 6 9 12 10 10 13 9 8 8 6 6 7 6 6 8 10 12 12 13 14 12 10 10 10 10 12 11 10 8 9
6 6 6 6 6 6 6 6 6 6 5 5 5 5 5 6 6 8 11 12 9 10 14 10 9 8 8 7 8 7 6 8 10 12 13 14 13 10 9 11 11 13 13 14 10 10 10
6 6 6 6 6 6 6 6 6 6 6 6 6 5 6 6 11 10 11 10 10 10 14 11 10 7 7 6 9 5 5 7 10 11 12 13 11 10 10 10 10 13 11 11 10 12 15
6 6 6 6 6 6 6 6 6 6 6 6 6 6 6 7 10 11 10 9 10 11 18 9 9 5 8 9 9 7 5 8 10 11 12 13 12 11 11 10 10 11 10 11 10 12 13
6 6 6 6 6 6 6 6 6 6 6 6 6 6 7 8 10 9 8 9 11 14 17 10 7 9 9 9 8 8 7 7 7 10 12 11 10 10 10 9 8 9 12 13 13 12 17
6 6 6 6 6 6 6 6 6 6 6 7 7 7 8 8 12 10 10 11 15 17 11 11 11 10 10 10 9 9 9 11 11 13 14 12 12 11 9 11 10 12 14 17 17 17 17
6 6 6 6 6 6 6 6 6 6 6 7 8 8 9 8 9 9 12 15 18 13 12 10 10 10 12 11 10 9 11 12 11 12 13 15 15 11 10 11 12 13 13 16 19 18 16
6 6 6 6 6 6 6 6 6 7 7 7 8 11 11 10 8 11 14 19 17 13 9 10 10 12 12 11 10 10 12 12 10 11 13 14 14 10 10 10 10 13 15 13 17 18 17
7 7 6 6 6 6 6 6 6 6 7 7 10 12 13 8 8 12 16 18 16 10 9 11 13 11 14 13 12 12 13 10 11 9 10 11 15 11 9 9 10 11 11 14 17 19 19
7 7 7 7 6 6 6 6 6 6 7 7 13 16 13 8 11 14 18 18 14 11 10 11 11 12 12 14 12 13 12 10 9 9 10 12 13 12 10 11 11 12 14 15 15 16 18
7 7 7 7 6 6 6 6 6 7 7 9 13 18 11 10 13 16 17 15 11 11 10 10 10 11 12 12 14 13 12 10 8 9 12 12 12 13 12 10 9 10 12 13 14 17 17
7 7 7 7 6 6 5 6 6 7 7 9 14 15 10 11 16 15 13 11 11 10 9 9 10 11 11 11 13 12 12 9 8 9 11 12 15 15 14 13 11 12 12 13 14 15 16
7 6 6 6 6 5 5 5 6 6 6 8 13 17 13 12 14 15 16 14 12 8 8 8 9 9 11 11 10 12 11 8 7 8 6 7 16 13 14 12 11 12 11 12 13 15 15
6 5 5 5 5 4 4 4 5 5 5 7 11 15 13 14 13 13 15 14 12 11 9 8 9 9 10 12 11 11 10 9 7 6 9 13 14 13 10 11 10 10 11 11 12 13 13
4 3 3 3 3 3 3 3 3 4 4 8 10 11 11 12 12 14 14 15 11 10 10 10 10 8 9 10 10 11 9 10 10 9 10 13 14 14 12 11 10 11 11 10 11 11 11
2 2 1 1 2 2 1 1 1 2 4 9 9 9 9 10 11 14 14 13 11 9 9 8 9 10 10 9 8 8 8 8 8 9 11 13 15 15 14 13 13 14 11 11 11 10 10
0 0 0 -0 -0 -0 -0 -0 -0 -0 2 4 6 6 9 12 9 9 10 10 10 9 11 9 9 11 8 9 8 9 10 8 9 10 9 12 15 16 13 15 17 11 9 9 9 9 8
-1 -1 -1 -1 -1 -1 -1 -0 -0 -0 0 3 4 6 7 11 9 9 9 9 10 10 11 9 8 8 10 11 11 12 11 10 9 9 9 9 14 15 17 16 13 11 10 9 10 10 8
-1 -1 -1 -1 -1 -1 -1 -1 -0 -1 -0 3 6 5 7 10 10 8 9 9 11 12 12 10 7 9 9 11 12 14 15 14 13 11 9 9 10 13 15 16 16 12 9 7 8 12 8
-1 -1 -1 -1 -1 -1 -1 -1 -1 -1 -1 1 4 2 5 8 7 8 9 10 9 10 12 11 11 11 8 12 13 14 14 11 15 14 14 13 13 14 15 15 14 10 8 7 12 12 8
-1 -1 -1 -1 -1 -1 -1 -1 -1 -1 -0 1 4 2 5 7 7 6 6 8 9 9 11 10 11 9 10 13 14 14 14 12 13 11 13 13 15 16 15 16 17 8 8 11 9 8 7
-1 -1 -1 -1 -1 -1 -1 -1 -1 -1 -0 0 5 4 2 6 7 5 5 4 6 6 9 10 12 12 9 12 11 12 14 12 13 15 10 14 12 14 13 14 9 8 9 7 7 7 7